COSMOS 1230

导读 | 星芒AI

COSMOS 1230 是苏联于1980年11月1日发射的一颗军用侦察卫星,搭载于联盟号火箭,运行在近地轨道。该卫星主要用于电子情报收集和光学侦察,具体任务细节未公开。其轨道高度约300公里,倾角约70度,设计寿命较短。COSMOS 1230 是苏联在冷战期间大量发射的 COSMOS 系列卫星之一,该系列常用于测试新技术和执行军事任务。该卫星最终在任务结束后再入大气层销毁。

基本信息
目录编号:
12109
目录名称:
COSMOS 1230
国际标识:
1980-102C
轨道中心:
EARTH
卫星名称:
COSMOS 1230
卫星全名:
--
卫星状态:
在轨 (已飞行16426 天)
发射日期:
1980-12-23 UTC
国别 :
俄罗斯(独联体) (CIS)
星等 :
--
轨道信息
数据来源 国际轨道数据
星历时间: 2025-12-13T07:30:19+0800
10小时前
查看轨道信息
半长轴: 7809.673km
偏心率: 0.0041922
轨道倾角: 73.992°
近地点辐角 306.803°
升交点赤经 208.583°
平近点角 167.384°
近地点: 1398.798km
远地点: 1464.278km
周期: 114.475分钟
每日圈数: 12.579215
详细信息
使用方式:
暂无
2D轨道图
3D轨道图
轨道高度分析图
轨道倾角分析图
轨道综合分析图
查看轨道综合分析图